Tracking 22441 objects as of 28-Feb-2021
HD Live streaming from Space Station
objects crossing your sky now

DELTA 1 DEB

Track DELTA 1 DEB now!
10-day predictions


NORAD ID: 42632
Int'l Code: 1975-052LR
Perigee: 1,084.5 km
Apogee: 1,698.7 km
Inclination: 99.6 °
Period: 113.4 minutes
Semi major axis: 7762 km
RCS: Unknown
Launch date: June 12, 1975
Source: United States (US)
Launch site: AIR FORCE WESTERN TEST RANGE (AFWTR)

Note: This is SATELLITE DEBRIS
aabbcc
Your satellite tracking list
Your tracking list is empty




NASA's NSSDC Master Catalog

Two Line Element Set (TLE):
1 42632U 75052LR  21058.94915549  .00000025  00000-0  22911-3 0  9993
2 42632  99.5523  55.6695 0395598 266.0972  89.4815 12.69386157294726
Source of the keplerian elements: AFSPC